SL-14 DEB, 45319

Orbit data source: Space-Track

SL-14 DEB, 45319 is space debris in LEO originally from a launch on Thu, 15 Aug 1991 UTC launched from the Plesetsk Missile And Space Complex (PKMTR). Debris objects in space refer to the collection of defunct objects orbiting the Earth. Examples of debris include non-operational satellites, rocket bodies, and fragments generated from explosions, collisions, or faulty payload assembly.

Loading next visibility...
Identifier
45319, 1991-056BH
Orbit
LEO
Country
Flag of CISCIS
Related business
Manufacturer
Unknown
Mission
Spacecraft
Bus & Motor
Unknown
Mass
Unknown
Launch date (UTC)
1991-08-15 (34 years ago)
Launch vehicle
Unknown
Launch site
Plesetsk Missile And Space Complex (PKMTR)
Object type
Payload
Rocket body
Debris
Shape & HBR
Unknown shape, 0.1 m
Radar Cross Section
Small (<0.1 m²)

Expand to show TLE details & history
Last TLE update: 4 days ago

TLE from 4 days ago
0 SL-14 DEB
1 45319U 91056BH  25288.39855830  .00001631  00000-0  29675-2 0  9991
2 45319  82.5776 268.8688 0084145 133.3359 227.4829 13.38819097274482
Epoch: 2025-10-15T09:33Z
TLE epoch observation values (Epoch: 2025-10-15T09:33:55.437Z)
Latitude
-0.00008°
Longitude
101.2146°
Altitude
1,159.418 km
Speed
7.253 km/s
True Right ascension
17h 55m 28s
True Declination
0° 00' 00"
Sunlit
Object was in daylight at epoch
Visualization orbit readout
Latitude
Unknown
Longitude
Unknown
Altitude
Unknown
Speed
Unknown
Apparent Right ascension
Unknown
Apparent Declination
Unknown
Sunlit
N/A
Visualization observer readout
Local Sidereal Time
08:02:43
Azimuth
Unknown
Elevation
Unknown
Doppler factor
Unknown
Orbital elements
Apogee altitude
1,173.911 km
Perigee altitude
1,047.878 km
Semi-major axis
7,489.031 km
Eccentricity
0.00841
Inclination
82.5776°
RAAN
268.8688°
Arg. of periapsis
133.3359°
True anomaly
226.77722°
Mean anomaly
227.4829°
Eccentric anomaly
227.12956°
Mean motion
3.34892 °/min
Orbital period
107.5 mins
BSTAR
0.0029675
Loading maneuver chart data...
Computing Atmospheric mass density...
Loading historical data...
Loading historical data...
Loading historical data...
Loading historical data...
Loading historical data...
Loading historical data...
Loading historical data...

Documentation

Showing up to 5 results
|